SPACEBEE-153 (52408 NORAD) Tracking and Keplerian Element Data

This shows tracking and keplerian element data for the satellite.

Feedback or suggestion? Click here.




ElementValue
Catalog52408
NameSPACEBEE-153
Epoch Orbit812
Epoch Day166.9582231
Epoch Year2022
RAAN251.8998
Inclination97.4528
Eccentricity0.0010219
Argument of Perigee185.3991
Mean Anonmoly174.7132
Mean Motion15.1347197
Decay Rate0.00011761
L11 52408U 22047Q 22166.95822310 .00011761 00000+0 65976-3 0 9992
L22 52408 97.4528 251.8998 0010219 185.3991 174.7132 15.13471970 8121

Live tracking and technical data element details for SPACEBEE-153 (NORAD 52408). SPACEBEE-153 can be tracked NOW for your location showing map with azimuth and elevation plus other details from your city location.

Track the satellite on the map from your city or location and see movement details for azimuth, elevation, latitude, longitude, range, height, and movement on the map or in text.







IsCatalogInMostPopularTable: catalog: 52408, numindb: 1
Update: records affected: 1



GetName: 52408 SPACEBEE-153

Hit Count: updated at: Mon, 27 Jun 2022 05:48:43 GMT